Simultaneous Nadir Overpasses (SNOs) Predictions

Prediction of SNOs between GOES-15 and NPP Satellite Orbit:

Table of predicted SNOs for the next 14.0 days since TLE Epoch: 12/24/2011
Index Date Time (GOES-15) GOES-15 Lat,Lon NPP Lat,Lon Distance(km) Time Diff (sec)
1 12/24/2011 22:40:09 0.04,-134.71 -0.94,-139.00 490.31 80
2 12/25/2011 22:24:03 0.03,-134.72 0.11,-134.48 27.65 80
3 12/28/2011 10:24:22 -0.04,-134.78 0.05,-135.21 49.08 80
4 12/29/2011 10:08:16 -0.03,-134.79 -0.95,-130.67 468.80 80
5 12/30/2011 22:30:10 0.04,-134.76 -0.21,-135.98 137.87 80
6 12/31/2011 22:11:24 0.04,-134.77 0.79,-131.44 379.59 80
7 01/02/2012 10:30:29 -0.04,-134.81 0.36,-136.71 215.86 80
8 01/03/2012 10:14:22 -0.04,-134.81 -0.64,-132.17 301.45 80
9 01/04/2012 22:36:16
